Change the Weather History Date:

Wednesday, May 8, 2013

  Actual Average Record
Temperature  
Mean Temperature 53 °F -  
Max Temperature 60 °F 68 °F 75 °F (2012)
Min Temperature 46 °F 44 °F 37 °F (2012)
Degree Days  
Heating Degree Days 12    
Growing Degree Days 3 (Base 50)    
Moisture  
Dew Point 42 °F    
Average Humidity 69    
Maximum Humidity 82    
Minimum Humidity 51    
Precipitation  
Precipitation 0.00 in - - ()
Sea Level Pressure  
Sea Level Pressure 30.10 in    
Wind  
Wind Speed 12 mph (WNW)    
Max Wind Speed 17 mph    
Max Gust Speed 24 mph    
Visibility 10 miles    
Events      
Averages and records for this station are not official NWS values.
T = Trace of Precipitation, MM = Missing Value Source: NWS Daily Summary

Daily Weather History Graph

Daily Weather History Graph

Search for Another Location

Airport or City:

Trip Planner

Search our weather history database for the weather conditions in past years. The results will help you decide how hot, cold, wet, or windy it might be!

Date:

Astronomy

May. 08, 2013 Rise Set
Actual Time 5:55 AM PDT 7:45 PM PDT
Civil Twilight 5:27 AM PDT 8:13 PM PDT
Nautical Twilight 4:54 AM PDT 8:46 PM PDT
Astronomical Twilight 4:18 AM PDT 9:22 PM PDT
Moon 5:03 AM PDT (5/8) 6:49 PM PDT (5/8)
Length of Visible Light 14h 45m
Length of Day
13h 50m
Waning Crescent, 1% of the Moon is Illuminated
May 8
Waning Crescent
May 9
New
May 17
First Quarter
May 24
Full
May 31
Last Quarter

Hourly Weather History & Observations

Time (PDT) Temp. Windchill Dew Point Humidity Pressure Visibility Wind Dir Wind Speed Gust Speed Precip Events Conditions
12:15 AM 46.4 °F 40.1 °F 37.4 °F 71% 30.07 in 10.0 mi West 15.0 mph - N/A   Clear
12:35 AM 46.4 °F 40.7 °F 37.4 °F 71% 30.07 in 10.0 mi West 12.7 mph - N/A   Clear
12:55 AM 46.4 °F 41.1 °F 39.2 °F 76% 30.07 in 10.0 mi WNW 11.5 mph - N/A   Scattered Clouds
1:15 AM 46.4 °F 41.5 °F 39.2 °F 76% 30.06 in 10.0 mi West 10.4 mph - N/A   Mostly Cloudy
1:35 AM 46.4 °F 41.1 °F 39.2 °F 76% 30.07 in 10.0 mi NW 11.5 mph - N/A   Mostly Cloudy
1:55 AM 46.4 °F 40.7 °F 39.2 °F 76% 30.07 in 10.0 mi NW 12.7 mph - N/A   Overcast
2:15 AM 46.4 °F 40.4 °F 39.2 °F 76% 30.06 in 10.0 mi WNW 13.8 mph - N/A   Overcast
2:35 AM 46.4 °F 41.9 °F 39.2 °F 76% 30.06 in 10.0 mi WNW 9.2 mph - N/A   Overcast
2:55 AM 46.4 °F 41.9 °F 41.0 °F 81% 30.06 in 10.0 mi WNW 9.2 mph - N/A   Overcast
3:15 AM 46.4 °F 41.5 °F 41.0 °F 81% 30.07 in 10.0 mi WNW 10.4 mph - N/A   Overcast
3:35 AM 46.4 °F 41.5 °F 41.0 °F 81% 30.07 in 10.0 mi WNW 10.4 mph - N/A   Overcast
3:55 AM 46.4 °F 41.9 °F 41.0 °F 81% 30.07 in 10.0 mi West 9.2 mph - N/A   Overcast
4:15 AM 46.4 °F 40.7 °F 41.0 °F 81% 30.07 in 10.0 mi NW 12.7 mph - N/A   Overcast
4:35 AM 46.4 °F 41.1 °F 41.0 °F 81% 30.07 in 10.0 mi WNW 11.5 mph - N/A   Overcast
4:55 AM 46.4 °F 41.5 °F 41.0 °F 81% 30.07 in 10.0 mi NW 10.4 mph - N/A   Overcast
5:15 AM 46.4 °F 41.5 °F 41.0 °F 81% 30.07 in 10.0 mi WNW 10.4 mph - N/A   Overcast
5:35 AM 46.4 °F 42.4 °F 41.0 °F 81% 30.08 in 10.0 mi NW 8.1 mph - N/A   Overcast
5:55 AM 46.4 °F 41.5 °F 41.0 °F 81% 30.08 in 10.0 mi WNW 10.4 mph - N/A   Overcast
6:15 AM 46.4 °F 41.5 °F 41.0 °F 81% 30.09 in 8.0 mi WNW 10.4 mph - N/A   Overcast
6:35 AM 46.4 °F 41.1 °F 41.0 °F 81% 30.10 in 9.0 mi NW 11.5 mph - N/A   Overcast
6:55 AM 46.4 °F 41.1 °F 41.0 °F 81% 30.10 in 9.0 mi NW 11.5 mph - N/A   Overcast
7:15 AM 46.4 °F 42.4 °F 41.0 °F 81% 30.10 in 9.0 mi WNW 8.1 mph - N/A   Overcast
7:35 AM 46.4 °F 41.9 °F 41.0 °F 81% 30.11 in 9.0 mi WNW 9.2 mph - N/A   Overcast
7:55 AM 48.2 °F - 41.0 °F 76% 30.11 in 9.0 mi WNW 11.5 mph - N/A   Overcast
8:15 AM 48.2 °F - 41.0 °F 76% 30.11 in 10.0 mi NW 9.2 mph - N/A   Overcast
8:35 AM 50.0 °F - 41.0 °F 71% 30.12 in 9.0 mi NW 8.1 mph - N/A   Overcast
8:55 AM 50.0 °F - 42.8 °F 76% 30.12 in 10.0 mi WNW 8.1 mph - N/A   Overcast
9:15 AM 50.0 °F - 42.8 °F 76% 30.12 in 9.0 mi NW 9.2 mph - N/A   Overcast
9:35 AM 51.8 °F - 42.8 °F 71% 30.12 in 10.0 mi NW 9.2 mph 16.1 mph N/A   Overcast
9:55 AM 55.4 °F - 42.8 °F 63% 30.12 in 10.0 mi NW 10.4 mph 17.3 mph N/A   Mostly Cloudy
10:15 AM 55.4 °F - 42.8 °F 63% 30.12 in 10.0 mi NW 13.8 mph - N/A   Partly Cloudy
10:35 AM 57.2 °F - 41.0 °F 55% 30.12 in 9.0 mi NW 13.8 mph 20.7 mph N/A   Scattered Clouds
10:55 AM 57.2 °F - 41.0 °F 55% 30.13 in 10.0 mi NW 13.8 mph 19.6 mph N/A   Mostly Cloudy
11:15 AM 57.2 °F - 41.0 °F 55% 30.13 in 9.0 mi NW 12.7 mph 19.6 mph N/A   Mostly Cloudy
11:35 AM 57.2 °F - 42.8 °F 59% 30.12 in 10.0 mi NW 12.7 mph - N/A   Partly Cloudy
11:55 AM 59.0 °F - 41.0 °F 51% 30.12 in 10.0 mi NW 13.8 mph 18.4 mph N/A   Partly Cloudy
12:15 PM 57.2 °F - 41.0 °F 55% 30.12 in 10.0 mi WNW 12.7 mph 19.6 mph N/A   Mostly Cloudy
12:35 PM 59.0 °F - 42.8 °F 55% 30.11 in 10.0 mi West 15.0 mph 24.2 mph N/A   Mostly Cloudy
12:55 PM 57.2 °F - 42.8 °F 59% 30.11 in 10.0 mi West 13.8 mph 21.9 mph N/A   Mostly Cloudy
1:15 PM 59.0 °F - 41.0 °F 51% 30.11 in 10.0 mi WNW 15.0 mph 20.7 mph N/A   Mostly Cloudy
1:35 PM 59.0 °F - 42.8 °F 55% 30.11 in 10.0 mi NW 17.3 mph - N/A   Mostly Cloudy
1:55 PM 59.0 °F - 42.8 °F 55% 30.11 in 10.0 mi WNW 13.8 mph 19.6 mph N/A   Mostly Cloudy
2:15 PM 59.0 °F - 42.8 °F 55% 30.11 in 9.0 mi NW 11.5 mph 18.4 mph N/A   Mostly Cloudy
2:35 PM 59.0 °F - 42.8 °F 55% 30.10 in 10.0 mi WNW 13.8 mph 18.4 mph N/A   Mostly Cloudy
2:55 PM 60.8 °F - 42.8 °F 52% 30.09 in 9.0 mi WNW 13.8 mph 18.4 mph N/A   Mostly Cloudy
3:15 PM 60.8 °F - 42.8 °F 52% 30.09 in 10.0 mi WNW 15.0 mph 21.9 mph N/A   Partly Cloudy
3:35 PM 59.0 °F - 42.8 °F 55% 30.09 in 9.0 mi WNW 15.0 mph 24.2 mph N/A   Scattered Clouds
3:55 PM 59.0 °F - 42.8 °F 55% 30.09 in 10.0 mi WNW 15.0 mph 21.9 mph N/A   Mostly Cloudy
4:15 PM 59.0 °F - 42.8 °F 55% 30.09 in 10.0 mi NW 16.1 mph 21.9 mph N/A   Overcast
4:35 PM 57.2 °F - 42.8 °F 59% 30.09 in 10.0 mi NW 16.1 mph - N/A   Overcast
4:55 PM 57.2 °F - 44.6 °F 63% 30.09 in 9.0 mi NW 13.8 mph 23.0 mph N/A   Overcast
5:15 PM 55.4 °F - 42.8 °F 63% 30.10 in 9.0 mi WNW 16.1 mph 23.0 mph N/A   Overcast
5:35 PM 57.2 °F - 44.6 °F 63% 30.09 in 10.0 mi NW 16.1 mph 23.0 mph N/A   Mostly Cloudy
5:55 PM 55.4 °F - 44.6 °F 67% 30.10 in 10.0 mi NW 16.1 mph 20.7 mph N/A   Mostly Cloudy
6:15 PM 55.4 °F - 44.6 °F 67% 30.10 in 10.0 mi NW 16.1 mph 20.7 mph N/A   Mostly Cloudy
6:35 PM 55.4 °F - 44.6 °F 67% 30.10 in 10.0 mi NW 13.8 mph - N/A   Mostly Cloudy
6:55 PM 55.4 °F - 44.6 °F 67% 30.09 in 10.0 mi NW 12.7 mph - N/A   Scattered Clouds
7:15 PM 55.4 °F - 44.6 °F 67% 30.10 in 10.0 mi WNW 13.8 mph 18.4 mph N/A   Scattered Clouds
7:35 PM 53.6 °F - 44.6 °F 72% 30.10 in 9.0 mi WNW 9.2 mph - N/A   Mostly Cloudy
7:55 PM 53.6 °F - 44.6 °F 72% 30.10 in 10.0 mi WNW 10.4 mph - N/A   Mostly Cloudy
8:15 PM 53.6 °F - 44.6 °F 72% 30.10 in 10.0 mi West 10.4 mph - N/A   Overcast
8:35 PM 53.6 °F - 46.4 °F 77% 30.11 in 10.0 mi West 11.5 mph - N/A   Overcast
10:15 PM 53.6 °F - 44.6 °F 72% 30.13 in 10.0 mi West 10.4 mph - N/A   Overcast
11:15 PM 50.0 °F - 44.6 °F 82% 30.14 in 9.0 mi West 9.2 mph - N/A   Mostly Cloudy